WESTFORD NEEDLES, 628

Orbit data source: Space-Track

WESTFORD NEEDLES, 628 is space debris in LEO originally from a launch on Thu, 09 May 1963 UTC launched from the Air Force Western Test Range (AFWTR). Debris objects in space refer to the collection of defunct objects orbiting the Earth. Examples of debris include non-operational satellites, rocket bodies, and fragments generated from explosions, collisions, or faulty payload assembly.

Loading next visibility...
Identifier
628, 1963-014F
Orbit
LEO
Country
Flag of USUS
Related business
Manufacturer
Unknown
Mission
Spacecraft
Bus & Motor
Unknown
Mass
~10 kg wet, ~10 kg dry
Launch date (UTC)
1963-05-09 (63 years ago)
Launch vehicle
Unknown
Launch site
Air Force Western Test Range (AFWTR)
Object type
Payload
Rocket body
Debris
Shape & HBR
PAN, 0.8 m
Radar Cross Section
Medium (>0.1 m² and <1 m²)

Expand to show TLE details & history
Last TLE update: 17 hours ago

TLE from 17 hours ago
0 WESTFORD NEEDLES
1 00628U 63014F   26235.32166375  .00000003  00000-0  00000-0 0  9994
2 00628  87.3490 196.9707 0024297  86.0953 274.2677  8.63375029994755
Epoch: 2026-08-23T07:43Z
TLE epoch observation values (Epoch: 2026-08-23T07:43:11.747Z)
Latitude
-0.00007°
Longitude
109.55236°
Altitude
3,659.25 km
Speed
6.303 km/s
True Right ascension
13h 07m 52s
True Declination
0° 00' 00"
Sunlit
Object was in daylight at epoch
Visualization orbit readout
Latitude
Unknown
Longitude
Unknown
Altitude
Unknown
Speed
Unknown
Apparent Right ascension
Unknown
Apparent Declination
Unknown
Sunlit
N/A
Visualization observer readout
Local Sidereal Time
15:53:01
Azimuth
Unknown
Elevation
Unknown
Doppler factor
Unknown
Orbital elements
Apogee altitude
3,681.031 km
Perigee altitude
3,632.268 km
Semi-major axis
10,034.786 km
Eccentricity
0.00243
Inclination
87.349°
RAAN
196.9707°
Arg. of periapsis
86.0953°
True anomaly
273.98999°
Mean anomaly
274.2677°
Eccentric anomaly
274.12885°
Mean motion
2.15914 °/min
Orbital period
166.73 mins
BSTAR
0
Loading maneuver chart data...
Computing Atmospheric mass density...

Documentation

Showing up to 5 results
|